Regional Weather Roundup
Issued by NWS

Home | Current Version | Previous Version | Graphics & Text | Print | Product List | Glossary On
Versions: 1 2 3 4 5 6 7 8 9 10 11 12 13 14 15 16 17 18 19 20 21 22 23 24 25 26 27 28 29 30 31 32 33 34 35 36 37 38 39 40 41 42 43 44 45 46 47 48 49 50
000
ASUS44 KFWD 291615
RWRTX
NORTH TEXAS HOURLY WEATHER ROUNDUP
NATIONAL WEATHER SERVICE FORT WORTH TX
1100 AM CDT FRI AUG 29 2014

NOTE: "FAIR" INDICATES FEW OR NO CLOUDS BELOW 12,000 FEET WITH NO
SIGNIFICANT WEATHER AND/OR OBSTRUCTIONS TO VISIBILITY.

TXZ118-119-291700-
DALLAS/FORT WORTH METROPLEX

CITY           SKY/WX    TMP DP  RH WIND       PRES   REMARKS
DFW AIRPORT    PTSUNNY   78  69  73 S6        29.94R
DALLAS LOVE    PTSUNNY   81  69  67 VRB3      29.94R
FTW MEACHAM    MOSUNNY   78  70  76 S8        29.94R
DAL-EXECUTIVE  PTSUNNY   82  67  60 VRB3      29.94R
FTW-ALLIANCE   PTSUNNY   79  68  69 VRB3      29.94R
FTW-NAS-JRB    PTSUNNY   80  67  64 SE6       29.99R
FTW-SPINKS     MOSUNNY   81  70  69 SE5       29.96R
ARLINGTON      MOSUNNY   80  68  66 S7        29.94R
GRAND PRAIRIE  SUNNY     81  66  61 SE7       29.95R
ADDISON        MOSUNNY   79  66  65 E3        29.95R
MESQUITE       MOSUNNY   79  68  69 S12       29.94R
LANCASTER      PTSUNNY   78  69  74 S6        29.95R
$$

TXZ091>094-102>105-117-120-121-131>134-291700-
NORTH CENTRAL TEXAS

CITY           SKY/WX    TMP DP  RH WIND       PRES   REMARKS
SHRMAN/DENISON MOSUNNY   77  68  74 CALM      29.96R
GAINESVILLE    MOSUNNY   80  68  66 SE6       29.97R
BOWIE          PTSUNNY   77  70  78 S7        29.97R
BRIDGEPORT     MOSUNNY   78  68  71 SW5       29.97S
DECATUR        MOSUNNY   77  70  79 S7        29.96R
DENTON         MOSUNNY   79  67  66 CALM      29.94R
MCKINNEY       PTSUNNY   78  70  76 S7        29.94R
GREENVILLE     CLOUDY    77  72  83 SE5       29.94R
ROCKWALL       PTSUNNY   78  70  76 SW12      29.93R
TERRELL        CLOUDY    78  74  87 S7        29.94R
WAXAHACHIE     PTSUNNY   80  67  63 SE5       29.95R
CLEBURNE       MOSUNNY   79  72  78 VRB3      29.96F
GRANBURY       MOSUNNY   79  69  72 E5        29.96R
$$

TXZ083>090-098>101-113>116-127>130-139>142-154-155-291700-
WESTERN NORTH TEXAS

CITY           SKY/WX    TMP DP  RH WIND       PRES   REMARKS
WICHITA FALLS  PTSUNNY   73  69  87 W8        29.96R
WF-KICKAPOO    CLOUDY    74  68  81 W9        29.97R
VERNON         PTSUNNY   74  67  76 W6        29.98R
ABILENE        CLOUDY    77  69  76 S7        29.99R
ABILENE-DYESS  PTSUNNY   77  70  78 SE8       29.98R
BRECKENRIDGE   SUNNY     82  68  63 S6        29.95S
GRAHAM         PTSUNNY   76  68  77 SE5       29.95R
MINERAL WELLS  PTSUNNY   77  69  76 E7        29.94S
STEPHENVILLE   SUNNY     78  67  69 S5        29.98S
COMANCHE         N/A     83  70  63 S7        29.95S
BROWNWOOD      SUNNY     81  72  74 CALM      29.96R
COLEMAN        MOSUNNY   80  69  70 S9        29.96S
BRADY          MOSUNNY   81  70  69 SE9       29.95R
$$

TXZ143>147-156>162-174-175-291700-
CENTRAL TEXAS

CITY           SKY/WX    TMP DP  RH WIND       PRES   REMARKS
WACO           SUNNY     80  72  76 NE6       29.95R
WACO-TSTC      MOSUNNY   81  72  74 SE7       29.94S
WACO-MCGREGOR  SUNNY     81  68  65 E6        29.96R
HILLSBORO      SUNNY     81  68  64 CALM      29.95S
CORSICANA      PTSUNNY   77  73  87 S10       29.96R
MEXIA          PTSUNNY   76  73  93 CALM      29.95R
HEARNE         LGT RAIN  82  75  79 CALM      29.92S
CAMERON        PTSUNNY   79  75  87 N5        29.93R
TEMPLE         SUNNY     84  68  58 NE3       29.94R
KILLEEN        MOSUNNY   84  72  65 SE10      29.93R
KILLEEN-SKYLRK SUNNY     84  68  58 E7        29.93R
FORT HOOD      SUNNY     87  69  54 NE5       29.94R HX  91
GATESVILLE     SUNNY     81  68  65 E5        29.97R
LAMPASAS       SUNNY     84  71  66 SE9       29.93R
$$

TXZ095>097-106>112-122>126-135>138-148>153-164>167-291700-
EAST TEXAS

CITY           SKY/WX    TMP DP  RH WIND       PRES   REMARKS
PARIS          CLOUDY    73  66  78 S5        29.95R
SULPHUR SPRNGS CLOUDY    75  73  93 CALM      29.96R
MOUNT PLEASANT PTSUNNY   82  71  69 SE12      29.96S
GILMER         PTSUNNY   79  75  89 S3        29.97R
MINEOLA        CLOUDY    79  73  83 S6        29.94R
TYLER          CLOUDY    79  73  82 S12       29.96R
LONGVIEW       PTSUNNY   80  71  74 NW6         N/A
MARSHALL       MOSUNNY   90  72  54 S7        29.98R HX  96
ATHENS         TSTM      73  72  94 S9        29.95R
PALESTINE      CLOUDY    80  75  83 CALM      29.97S
JACKSONVILLE   PTSUNNY   78  74  89 CALM      29.99R
HENDERSON      PTSUNNY   84  73  70 W3        29.96S HX  91
NACOGDOCHES    MOSUNNY   84  72  65 S7        29.96R
LUFKIN         MOSUNNY   88  74  63 S8        29.95R HX  96
$$

SUPPLEMENTAL OBSERVATIONS (CENTRAL)

CITY           SKY/WX    TMP DP  RH WIND       PRES   REMARKS
CADDO GRASSLND   N/A     79  72  78 S6G14       N/A
PAT MAYSE LAKE   N/A     75  70  83 SE9         N/A
GREENVILLE       N/A     77  72  83 SE5         N/A
CEDAR HILL       N/A     84  70  61 SW5         N/A
LAKE LIMESTONE   N/A     79  73  83 VRB3        N/A
MCGREGOR         N/A     82  70  65 NE6         N/A
TEMPLE           N/A     86  70  58 SE6         N/A  HX  90
$$

SUPPLEMENTAL OBSERVATIONS (WEST)

CITY           SKY/WX    TMP DP  RH WIND       PRES   REMARKS
MILLERS CREEK    N/A     77  72  83 SW9         N/A
POSSUM KINGDOM   N/A     77  70  78 SE3         N/A
LBJ GRASSLAND    N/A     81  70  69 S6          N/A
GRANBURY         N/A     81  70  69 E5          N/A
COMANCHE         N/A     84  73  70 SE8         N/A  HX  91
HAMBY            N/A     79  68  69 S10         N/A
IVIE RESERVOIR   N/A     88  70  55 SE9         N/A  HX  92
COLORADO BEND    N/A     88  70  55 S8G16       N/A  HX  92
$$

SUPPLEMENTAL OBSERVATIONS (EAST)

CITY           SKY/WX    TMP DP  RH WIND       PRES   REMARKS
CLARKSVILLE      N/A     77  73  88 SW3G16      N/A
TEXARKANA        N/A     90  73  58 S3G12       N/A  HX  98
LINDEN           N/A     90  72  55 SW5         N/A  HX  96
CADDO LAKE       N/A     90  68  48 S5          N/A  HX  93
GILMER           N/A     79  73  83 S5          N/A
HENDERSON        N/A     88  73  62 S6          N/A  HX  96
LUFKIN           N/A     88  73  62 MISG        N/A  HX  96
N SABINE NF      N/A     90  77  66 MISG        N/A  HX 102
$$

SUPPLEMENTAL OBSERVATIONS ARE A COLLECTION OF AUTOMATED INSTRUMENTS
THAT ARE MAINTAINED BY A VARIETY OF FEDERAL AND STATE AGENCIES.
CERTAIN ELEMENTS...SUCH AS HUMIDITY VALUES AND SUSTAINED WIND
SPEEDS...MAY BE APPROXIMATED.



USA.gov is the U.S. government's official web portal to all federal, state and local government web resources and services.